Fort Knox, KY

8:10 AM EST on December 06, 2019 (GMT -0500)
Godman Army Air Field

Weather History for KFTK - October, 2019

Change the Weather History Date:

Saturday, October 26, 2019

  Actual Average Record
Temperature  
Mean Temperature 58 °F -  
Max Temperature 66 °F 64 °F 80 °F (2000)
Min Temperature 51 °F 43 °F 28 °F (2013)
Degree Days  
Heating Degree Days 6    
Growing Degree Days 8 (Base 50)    
Moisture  
Dew Point 58 °F    
Average Humidity 99    
Maximum Humidity 100    
Minimum Humidity 88    
Precipitation  
Precipitation 1.20 in - - ()
Sea Level Pressure  
Sea Level Pressure 29.80 in    
Wind  
Wind Speed 11 mph (ESE)    
Max Wind Speed 25 mph    
Max Gust Speed 34 mph    
Visibility 9 miles    
Events Rain    
Averages and records for this station are not official NWS values.
T = Trace of Precipitation, MM = Missing Value Source: NWS Daily Summary

Daily Weather History Graph

Daily Weather History Graph

Search for Another Location

Airport or City:

Astronomy

Oct. 26, 2019 Rise Set
Actual Time 8:03 AM EDT 6:52 PM EDT
Civil Twilight 7:36 AM EDT 7:19 PM EDT
Nautical Twilight 7:05 AM EDT 7:49 PM EDT
Astronomical Twilight 6:34 AM EDT 8:20 PM EDT
Moon 6:01 AM EDT (10/26) 6:24 PM EDT (10/26)
Length of Visible Light 11h 42m
Length of Day
10h 49m
Waning Crescent, 3% of the Moon is Illuminated
Oct 26
Waning Crescent
Oct 27
New
Nov 4
First Quarter
Nov 12
Full
Nov 19
Last Quarter

Hourly Weather History & Observations

Time (EDT) Temp. Dew Point Humidity Pressure Visibility Wind Dir Wind Speed Gust Speed Precip Events Conditions
12:09 AM 53.6 °F 51.8 °F 94% 30.15 in 10.0 mi East 6.9 mph - N/A Rain Light Rain
12:56 AM 52.3 °F 52.3 °F 100% 30.14 in 10.0 mi NNE 5.8 mph - 0.02 in Rain Light Rain
1:11 AM 51.8 °F 51.8 °F 100% 30.12 in 10.0 mi NNE 5.8 mph - N/A Rain Light Rain
1:41 AM 51.8 °F 51.8 °F 100% 30.11 in 10.0 mi NE 6.9 mph - N/A   Scattered Clouds
1:54 AM 51.8 °F 51.8 °F 100% 30.11 in 10.0 mi ENE 8.1 mph - N/A Rain Light Rain
1:56 AM 52.2 °F 52.2 °F 100% 30.11 in 10.0 mi NE 8.1 mph - 0.01 in Rain Light Rain
2:13 AM 51.8 °F 51.8 °F 100% 30.10 in 10.0 mi NE 9.2 mph - N/A   Overcast
2:49 AM 51.8 °F 51.8 °F 100% 30.08 in 8.0 mi NE 6.9 mph - N/A Rain Light Rain
2:56 AM 52.2 °F 52.2 °F 100% 30.08 in 7.0 mi NE 9.2 mph - 0.04 in Rain Light Rain
3:13 AM 51.8 °F 51.8 °F 100% 30.06 in 5.0 mi NE 10.4 mph - N/A Rain Light Rain
3:28 AM 51.8 °F 51.8 °F 100% 30.06 in 7.0 mi ENE 8.1 mph - N/A Rain Light Rain
3:56 AM 52.0 °F 52.0 °F 100% 30.06 in 8.0 mi ENE 9.2 mph - 0.09 in Rain Light Rain
4:17 AM 51.8 °F 51.8 °F 100% 30.04 in 3.0 mi ENE 11.5 mph - N/A Rain Light Rain
4:26 AM 51.8 °F 51.8 °F 100% 30.02 in 4.0 mi NE 11.5 mph - N/A Rain Rain
4:50 AM 51.8 °F 51.8 °F 100% 30.00 in 8.0 mi ENE 11.5 mph - N/A Rain Light Rain
4:56 AM 52.0 °F 52.0 °F 100% 30.00 in 7.0 mi ENE 10.4 mph - 0.15 in Rain Light Rain
5:03 AM 51.8 °F 51.8 °F 100% 30.02 in 6.0 mi East 8.1 mph - N/A Rain Rain
5:12 AM 51.8 °F 51.8 °F 100% 30.00 in 3.0 mi ENE 12.7 mph - N/A Rain Heavy Rain
5:28 AM 51.8 °F 51.8 °F 100% 29.98 in 4.0 mi ENE 12.7 mph - N/A Rain Rain
5:56 AM 52.5 °F 52.5 °F 100% 29.98 in 5.0 mi ENE 9.2 mph - 0.23 in Rain Rain
6:24 AM 53.6 °F 53.6 °F 100% 29.96 in 10.0 mi ENE 11.5 mph - N/A Rain Light Rain
6:56 AM 52.9 °F 52.9 °F 100% 29.95 in 6.0 mi NE 8.1 mph - 0.10 in Rain Rain
7:10 AM 53.6 °F 53.6 °F 100% 29.93 in 4.0 mi NE 9.2 mph - N/A Rain Rain
7:25 AM 53.6 °F 53.6 °F 100% 29.93 in 3.0 mi North 8.1 mph - N/A Rain Rain
7:56 AM 53.1 °F 53.1 °F 100% 29.92 in 8.0 mi ENE 6.9 mph - 0.23 in Rain Light Rain
8:31 AM 53.6 °F 53.6 °F 100% 29.90 in 7.0 mi ENE 9.2 mph - N/A Rain Light Rain
8:56 AM 54.0 °F 54.0 °F 100% 29.89 in 3.0 mi ENE 10.4 mph - 0.13 in Rain Rain
9:51 AM 55.4 °F 55.4 °F 100% 29.88 in 10.0 mi East 12.7 mph - N/A   Overcast
9:56 AM 55.2 °F 55.2 °F 100% 29.88 in 10.0 mi East 12.7 mph - 0.07 in   Overcast
10:19 AM 55.4 °F 55.4 °F 100% 29.87 in 10.0 mi East 13.8 mph - N/A Rain Light Rain
10:30 AM 55.4 °F 55.4 °F 100% 29.87 in 10.0 mi East 11.5 mph - N/A   Overcast
10:46 AM 57.2 °F 57.2 °F 100% 29.86 in 10.0 mi East 11.5 mph - N/A   Light Drizzle
10:56 AM 56.5 °F 56.5 °F 100% 29.86 in 10.0 mi East 11.5 mph - 0.00 in Rain Light Rain
11:20 AM 57.2 °F 57.2 °F 100% 29.85 in 10.0 mi East 10.4 mph - N/A   Overcast
11:40 AM 57.2 °F 57.2 °F 100% 29.83 in 10.0 mi East 12.7 mph - N/A   Overcast
11:43 AM 57.2 °F 57.2 °F 100% 29.83 in 10.0 mi East 12.7 mph - N/A Rain Light Rain
11:45 AM 57.2 °F 57.2 °F 100% 29.83 in 10.0 mi East 12.7 mph - N/A   Overcast
11:50 AM 57.2 °F 57.2 °F 100% 29.83 in 10.0 mi East 11.5 mph - N/A   Light Drizzle
11:56 AM 58.1 °F 58.1 °F 100% 29.82 in 10.0 mi East 12.7 mph - 0.00 in Rain Light Rain
12:01 PM 59.0 °F 59.0 °F 100% 29.83 in 10.0 mi East 13.8 mph - N/A   Overcast
12:19 PM 59.0 °F 59.0 °F 100% 29.81 in 10.0 mi East 10.4 mph - N/A   Overcast
12:26 PM 59.0 °F 59.0 °F 100% 29.81 in 10.0 mi East 10.4 mph - N/A Rain Light Rain
12:54 PM 59.0 °F 59.0 °F 100% 29.79 in 10.0 mi East 12.7 mph - N/A Rain Light Rain
12:56 PM 59.5 °F 59.5 °F 100% 29.79 in 10.0 mi East 13.8 mph - 0.01 in Rain Light Rain
1:32 PM 60.8 °F 60.8 °F 100% 29.75 in 10.0 mi East 13.8 mph - N/A   Light Drizzle
1:39 PM 60.8 °F 60.8 °F 100% 29.74 in 10.0 mi East 15.0 mph - N/A   Overcast
2:04 PM - - N/A% 29.72 in - North - - N/A Rain Light Rain
2:16 PM 60.8 °F 60.8 °F 100% 29.71 in 8.0 mi East 13.8 mph - N/A Rain Light Rain
2:34 PM 60.8 °F 60.8 °F 100% 29.69 in 10.0 mi East 12.7 mph - N/A Rain Light Rain
2:39 PM 60.8 °F 60.8 °F 100% 29.68 in 10.0 mi East 13.8 mph - N/A   Overcast
2:54 PM 62.6 °F 62.6 °F 100% 29.67 in 10.0 mi East 15.0 mph - N/A   Overcast
2:56 PM 61.9 °F 61.9 °F 100% 29.67 in 10.0 mi East 15.0 mph - N/A   Overcast
2:58 PM 62.6 °F 62.6 °F 100% 29.65 in 10.0 mi East 15.0 mph - N/A   Overcast
3:03 PM 62.6 °F 62.6 °F 100% 29.65 in 10.0 mi East 15.0 mph - N/A Rain Light Rain
3:18 PM 62.6 °F 62.6 °F 100% 29.64 in 10.0 mi East 15.0 mph - N/A   Light Drizzle
3:30 PM 62.6 °F 62.6 °F 100% 29.62 in 10.0 mi ESE 13.8 mph 20.7 mph N/A   Overcast
3:56 PM 64.2 °F 64.2 °F 100% 29.61 in 10.0 mi ESE 13.8 mph 23.0 mph 0.00 in   Overcast
4:56 PM 64.2 °F 64.2 °F 100% 29.61 in 10.0 mi ESE 13.8 mph 23.0 mph N/A   Overcast
5:56 PM 64.2 °F 64.2 °F 100% 29.60 in 10.0 mi SE 17.3 mph 23.0 mph N/A   Overcast
6:20 PM - - N/A% 29.63 in - North - - N/A Rain Heavy Rain
6:24 PM 66.2 °F 66.2 °F 100% 29.61 in - SW 13.8 mph - N/A Rain Heavy Rain
6:25 PM 66.2 °F 66.2 °F 100% 29.62 in - SE 16.1 mph 20.7 mph N/A Rain Heavy Rain
6:29 PM 64.4 °F 64.4 °F 100% 29.61 in 1.1 mi South 11.5 mph - N/A Rain Heavy Rain
6:44 PM 64.4 °F 64.4 °F 100% 29.61 in 9.0 mi South 11.5 mph - N/A Rain Light Rain
6:56 PM 65.1 °F 65.1 °F 100% 29.60 in 10.0 mi South 10.4 mph - N/A Rain Light Rain
7:02 PM 64.4 °F 64.4 °F 100% 29.61 in 10.0 mi South 8.1 mph - N/A   Overcast
7:04 PM 64.4 °F 64.4 °F 100% 29.61 in 10.0 mi South 9.2 mph - N/A Rain Light Rain
7:34 PM 64.4 °F 64.4 °F 100% 29.60 in 8.0 mi South 11.5 mph - N/A Rain Rain
7:49 PM 64.4 °F 64.4 °F 100% 29.59 in 6.0 mi SSE 11.5 mph - N/A Rain Light Rain
7:56 PM 64.8 °F 64.8 °F 100% 29.60 in 10.0 mi South 11.5 mph - 0.11 in Rain Light Rain
7:57 PM 64.4 °F 64.4 °F 100% 29.60 in 10.0 mi South 12.7 mph - N/A   Overcast
8:09 PM 64.4 °F 64.4 °F 100% 29.60 in 10.0 mi South 10.4 mph - N/A Rain Light Rain
8:22 PM 64.4 °F 64.4 °F 100% 29.60 in 10.0 mi South 10.4 mph - N/A   Overcast
8:56 PM 64.8 °F 64.8 °F 100% 29.59 in 10.0 mi South 10.4 mph - 0.01 in   Scattered Clouds
9:12 PM 64.4 °F 64.4 °F 100% 29.61 in 10.0 mi SSW 11.5 mph - N/A   Mostly Cloudy
9:27 PM 64.4 °F 64.4 °F 100% 29.61 in 10.0 mi SSW 16.1 mph 26.5 mph N/A   Mostly Cloudy
9:45 PM 64.4 °F 62.6 °F 94% 29.63 in 10.0 mi SSW 12.7 mph 28.8 mph N/A   Overcast
9:56 PM 64.4 °F 63.1 °F 96% 29.63 in 10.0 mi SSW 15.0 mph - N/A   Overcast
10:22 PM 64.4 °F 62.6 °F 94% 29.65 in 10.0 mi SW 13.8 mph 21.9 mph N/A   Overcast
10:37 PM 64.4 °F 60.8 °F 88% 29.66 in 10.0 mi SW 11.5 mph 23.0 mph N/A   Overcast
10:50 PM 64.4 °F 60.8 °F 88% 29.68 in 10.0 mi WSW 25.3 mph 34.5 mph N/A   Overcast
10:56 PM 63.7 °F 60.4 °F 89% 29.68 in 10.0 mi WSW 24.2 mph 34.5 mph N/A   Overcast
10:59 PM 62.6 °F 59.0 °F 88% 29.70 in 10.0 mi WSW 18.4 mph 33.4 mph N/A Rain Light Rain
11:07 PM 60.8 °F 59.0 °F 94% 29.71 in 10.0 mi WSW 17.3 mph 29.9 mph N/A Rain Light Rain
11:20 PM 59.0 °F 59.0 °F 100% 29.71 in 10.0 mi WSW 16.1 mph 26.5 mph N/A   Overcast
11:35 PM 59.0 °F 59.0 °F 100% 29.71 in 10.0 mi SW 15.0 mph 24.2 mph N/A   Overcast
11:56 PM 59.0 °F 56.3 °F 91% 29.71 in 10.0 mi SW 16.1 mph 25.3 mph 0.00 in   Overcast